Sarasota, FL

5:23 AM EDT on September 16, 2019 (GMT -0400)
Sarasota-bradenton

Weather History for KSRQ - August, 2019

Change the Weather History Date:

Sunday, August 25, 2019

  Actual Average Record
Temperature  
Mean Temperature 86 °F 82 °F  
Max Temperature 95 °F 90 °F 97 °F (2016)
Min Temperature 77 °F 75 °F 66 °F (1971)
Degree Days  
Heating Degree Days 0 0  
Month to date heating degree days 0 0  
Since 1 June heating degree days 0 0  
Since 1 July heating degree days 0 0  
Cooling Degree Days 21 17  
Month to date cooling degree days 462 425  
Year to date cooling degree days 2733 2187  
Since 1 June cooling degree days 1576 1436  
Growing Degree Days 36 (Base 50)    
Moisture  
Dew Point 75 °F    
Average Humidity 73    
Maximum Humidity 94    
Minimum Humidity 49    
Precipitation  
Precipitation 0.00 in 0.28 in 4.55 in (1913)
Month to date precipitation 12.42 7.41  
Year to date precipitation 40.95 36.60  
Sea Level Pressure  
Sea Level Pressure 29.91 in    
Wind  
Wind Speed 5 mph ()    
Max Wind Speed 12 mph    
Max Gust Speed 16 mph    
Visibility 10.0 miles    
Events      
T = Trace of Precipitation, MM = Missing Value Source: Averaged Metar Reports

Daily Weather History Graph

Daily Weather History Graph

Search for Another Location

Airport or City:

Astronomy

Aug. 25, 2019 Rise Set
Actual Time 7:05 AM EDT 7:58 PM EDT
Civil Twilight 6:41 AM EDT 8:22 PM EDT
Nautical Twilight 6:13 AM EDT 8:50 PM EDT
Astronomical Twilight 5:44 AM EDT 9:19 PM EDT
Moon 1:55 AM EDT (8/25) 4:00 PM EDT (8/25)
Length of Visible Light 13h 40m
Length of Day
12h 52m
Waning Crescent, 29% of the Moon is Illuminated
Aug 25
Waning Crescent
Aug 30
New
Sep 5
First Quarter
Sep 14
Full
Sep 21
Last Quarter

Hourly Weather History & Observations

Time (EDT) Temp. Heat Index Dew Point Humidity Pressure Visibility Wind Dir Wind Speed Gust Speed Precip Events Conditions
12:53 AM 82.0 °F 89.4 °F 75.9 °F 82% 29.93 in 10.0 mi ENE 5.8 mph - N/A   Clear
1:53 AM 80.1 °F 85.4 °F 75.9 °F 87% 29.92 in 10.0 mi Calm Calm - N/A   Clear
2:53 AM 79.0 °F - 75.9 °F 90% 29.90 in 10.0 mi East 5.8 mph - N/A   Clear
3:53 AM 79.0 °F - 75.0 °F 88% 29.89 in 10.0 mi ENE 3.5 mph - N/A   Clear
4:53 AM 79.0 °F - 75.9 °F 90% 29.89 in 10.0 mi East 3.5 mph - N/A   Clear
5:53 AM 78.1 °F - 75.0 °F 90% 29.89 in 10.0 mi ENE 5.8 mph - N/A   Clear
6:53 AM 77.0 °F - 75.0 °F 94% 29.91 in 10.0 mi NE 3.5 mph - N/A   Clear
7:53 AM 79.0 °F - 75.0 °F 88% 29.92 in 10.0 mi NE 5.8 mph - N/A   Clear
8:53 AM 82.9 °F 90.8 °F 75.9 °F 79% 29.94 in 10.0 mi NE 8.1 mph - N/A   Clear
9:53 AM 86.0 °F 96.0 °F 75.9 °F 72% 29.95 in 10.0 mi NNE 6.9 mph - N/A   Clear
10:53 AM 89.1 °F 98.0 °F 73.9 °F 61% 29.96 in 10.0 mi North 6.9 mph - N/A   Clear
11:53 AM 90.0 °F 97.9 °F 73.0 °F 57% 29.95 in 10.0 mi NNE 9.2 mph - N/A   Clear
12:53 PM 91.9 °F 101.3 °F 73.9 °F 55% 29.94 in 10.0 mi NNE 8.1 mph - N/A   Scattered Clouds
1:53 PM 91.0 °F 100.4 °F 73.9 °F 57% 29.94 in 10.0 mi NE 5.8 mph - N/A   Mostly Cloudy
2:53 PM 93.9 °F 104.0 °F 73.9 °F 52% 29.91 in 10.0 mi NE 6.9 mph - N/A   Scattered Clouds
3:53 PM 91.9 °F 100.7 °F 73.0 °F 54% 29.90 in 10.0 mi NNE 5.8 mph - N/A   Scattered Clouds
4:53 PM 95.0 °F 104.5 °F 73.0 °F 49% 29.87 in 10.0 mi NE 8.1 mph - N/A   Partly Cloudy
5:53 PM 93.0 °F 101.9 °F 73.0 °F 52% 29.86 in 10.0 mi ENE 6.9 mph - N/A   Partly Cloudy
6:53 PM 93.0 °F 101.9 °F 73.0 °F 52% 29.87 in 10.0 mi ENE 4.6 mph - N/A   Clear
7:53 PM 87.1 °F 98.8 °F 77.0 °F 72% 29.88 in 10.0 mi NNW 6.9 mph - N/A   Partly Cloudy
8:53 PM 84.9 °F 96.6 °F 78.1 °F 80% 29.90 in 10.0 mi NW 3.5 mph - N/A   Scattered Clouds
9:53 PM 84.9 °F 96.6 °F 78.1 °F 80% 29.92 in 10.0 mi NNW 4.6 mph - N/A   Partly Cloudy
10:53 PM 84.9 °F 97.5 °F 79.0 °F 82% 29.94 in 10.0 mi North 3.5 mph - N/A   Scattered Clouds
11:53 PM 84.0 °F 96.0 °F 79.0 °F 85% 29.93 in 10.0 mi North 3.5 mph - N/A   Clear